Time,TemperatureF,DewpointF,PressureIn,WindDirection,WindDirectionDegrees,WindSpeedMPH,WindSpeedGustMPH,Humidity,HourlyPrecipIn,Conditions,Clouds,dailyrainin,SoftwareType,DateUTC
2013-04-05 00:02:00,41.0,37.0,30.08,SSW,192,0.0,0.0,87,0.00,,,0.00,,2013-04-05 05:02:00,
2013-04-05 00:12:00,41.0,37.0,30.08,SSW,192,0.0,0.0,87,0.00,,,0.00,,2013-04-05 05:12:00,
2013-04-05 00:22:00,41.0,37.0,30.08,SSW,192,0.0,0.0,87,0.00,,,0.00,,2013-04-05 05:22:00,
2013-04-05 00:32:00,40.0,37.0,30.08,SSW,192,0.0,0.0,89,0.00,,,0.00,,2013-04-05 05:32:00,
2013-04-05 00:42:00,40.0,37.0,30.08,SSW,192,0.0,0.0,89,0.00,,,0.00,,2013-04-05 05:42:00,
2013-04-05 00:52:00,39.0,36.0,30.08,SSW,192,0.0,0.0,89,0.00,,,0.00,,2013-04-05 05:52:00,
2013-04-05 01:02:00,39.0,36.0,30.08,SSW,192,0.0,0.0,89,0.00,,,0.00,,2013-04-05 06:02:00,
2013-04-05 01:12:00,39.0,36.0,30.08,SSW,192,0.0,0.0,89,0.00,,,0.00,,2013-04-05 06:12:00,
2013-04-05 01:22:00,37.0,34.0,30.09,SSW,192,0.0,1.0,90,0.00,,,0.00,,2013-04-05 06:22:00,
2013-04-05 01:32:00,37.0,35.0,30.09,SSW,192,0.0,0.0,91,0.00,,,0.00,,2013-04-05 06:32:00,
2013-04-05 01:42:00,37.0,35.0,30.09,SSW,192,0.0,0.0,91,0.00,,,0.00,,2013-04-05 06:42:00,
2013-04-05 01:52:00,36.0,34.0,30.09,SSW,192,0.0,0.0,91,0.00,,,0.00,,2013-04-05 06:52:00,
2013-04-05 02:02:00,36.0,34.0,30.09,SSW,192,0.0,0.0,92,0.00,,,0.00,,2013-04-05 07:02:00,
2013-04-05 02:12:00,36.0,34.0,30.09,SSW,192,0.0,0.0,92,0.00,,,0.00,,2013-04-05 07:12:00,
2013-04-05 02:22:00,35.0,33.0,30.09,SSW,192,0.0,0.0,91,0.00,,,0.00,,2013-04-05 07:22:00,
2013-04-05 02:32:00,34.0,32.0,30.09,SSW,192,0.0,0.0,93,0.00,,,0.00,,2013-04-05 07:32:00,
2013-04-05 02:42:00,34.0,32.0,30.09,SSW,192,0.0,0.0,93,0.00,,,0.00,,2013-04-05 07:42:00,
2013-04-05 02:52:00,34.0,32.0,30.09,SSW,192,0.0,0.0,93,0.00,,,0.00,,2013-04-05 07:52:00,
2013-04-05 03:02:00,34.0,32.0,30.09,SSW,192,0.0,0.0,93,0.00,,,0.00,,2013-04-05 08:02:00,
2013-04-05 03:12:00,34.0,32.0,30.09,SSW,192,0.0,0.0,93,0.00,,,0.00,,2013-04-05 08:12:00,
2013-04-05 03:22:00,34.0,32.0,30.09,SSW,192,0.0,0.0,94,0.00,,,0.00,,2013-04-05 08:22:00,
2013-04-05 03:32:00,34.0,32.0,30.10,SSW,192,0.0,0.0,93,0.00,,,0.00,,2013-04-05 08:32:00,
2013-04-05 03:43:00,34.0,32.0,30.10,SSW,192,0.0,0.0,93,0.00,,,0.00,,2013-04-05 08:43:00,
2013-04-05 03:52:00,33.0,31.0,30.10,SSW,192,0.0,0.0,93,0.00,,,0.00,,2013-04-05 08:52:00,
2013-04-05 04:02:00,33.0,31.0,30.11,SSW,192,0.0,0.0,93,0.00,,,0.00,,2013-04-05 09:02:00,
2013-04-05 04:12:00,33.0,31.0,30.11,SSW,192,0.0,0.0,93,0.00,,,0.00,,2013-04-05 09:12:00,
2013-04-05 04:22:00,32.0,30.0,30.11,SSW,192,0.0,0.0,93,0.00,,,0.00,,2013-04-05 09:22:00,
2013-04-05 04:33:00,32.0,30.0,30.11,SSW,192,0.0,0.0,94,0.00,,,0.00,,2013-04-05 09:33:00,
2013-04-05 04:42:00,32.0,30.0,30.11,SSW,192,0.0,0.0,94,0.00,,,0.00,,2013-04-05 09:42:00,
2013-04-05 04:53:00,31.0,29.0,30.12,SSW,192,0.0,0.0,93,0.00,,,0.00,,2013-04-05 09:53:00,
2013-04-05 05:03:00,32.0,30.0,30.12,East,90,0.0,2.0,94,0.00,,,0.00,,2013-04-05 10:03:00,
2013-04-05 05:13:00,32.0,30.0,30.12,East,90,0.0,2.0,94,0.00,,,0.00,,2013-04-05 10:13:00,
2013-04-05 05:23:00,32.0,30.0,30.12,East,90,0.0,2.0,94,0.00,,,0.00,,2013-04-05 10:23:00,
2013-04-05 05:32:00,31.0,29.0,30.13,East,82,0.0,2.0,94,0.00,,,0.00,,2013-04-05 10:32:00,
2013-04-05 05:42:00,31.0,29.0,30.13,East,82,0.0,2.0,94,0.00,,,0.00,,2013-04-05 10:42:00,
2013-04-05 05:53:00,31.0,29.0,30.13,East,82,0.0,1.0,94,0.00,,,0.00,,2013-04-05 10:53:00,
2013-04-05 06:02:00,31.0,29.0,30.14,East,82,0.0,1.0,94,0.00,,,0.00,,2013-04-05 11:02:00,
2013-04-05 06:12:00,31.0,29.0,30.14,East,82,0.0,1.0,94,0.00,,,0.00,,2013-04-05 11:12:00,
2013-04-05 06:22:00,31.0,29.0,30.14,East,82,0.0,1.0,94,0.00,,,0.00,,2013-04-05 11:22:00,
2013-04-05 06:33:00,30.0,28.0,30.14,East,82,0.0,0.0,94,0.00,,,0.00,,2013-04-05 11:33:00,
2013-04-05 06:42:00,30.0,28.0,30.14,East,82,0.0,0.0,94,0.00,,,0.00,,2013-04-05 11:42:00,
2013-04-05 06:52:00,30.0,28.0,30.15,East,82,0.0,1.0,94,0.00,,,0.00,,2013-04-05 11:52:00,
2013-04-05 07:02:00,30.0,28.0,30.16,SE,144,0.0,2.0,94,0.00,,,0.00,,2013-04-05 12:02:00,
2013-04-05 07:12:00,30.0,28.0,30.16,SE,144,0.0,2.0,94,0.00,,,0.00,,2013-04-05 12:12:00,
2013-04-05 07:22:00,30.0,29.0,30.16,ENE,65,0.0,3.0,95,0.00,,,0.00,,2013-04-05 12:22:00,
2013-04-05 07:32:00,31.0,30.0,30.16,ENE,65,0.0,0.0,95,0.00,,,0.00,,2013-04-05 12:32:00,
2013-04-05 07:42:00,31.0,30.0,30.16,ENE,65,0.0,0.0,95,0.00,,,0.00,,2013-04-05 12:42:00,
2013-04-05 07:52:00,32.0,31.0,30.17,ENE,69,0.0,1.0,95,0.00,,,0.00,,2013-04-05 12:52:00,
2013-04-05 08:02:00,33.0,32.0,30.18,ENE,74,0.0,2.0,95,0.00,,,0.00,,2013-04-05 13:02:00,
2013-04-05 08:12:00,33.0,32.0,30.18,ENE,74,0.0,2.0,95,0.00,,,0.00,,2013-04-05 13:12:00,
2013-04-05 08:22:00,35.0,34.0,30.18,SE,146,0.0,1.0,95,0.00,,,0.00,,2013-04-05 13:22:00,
2013-04-05 08:32:00,36.0,34.0,30.18,SE,127,0.0,1.0,94,0.00,,,0.00,,2013-04-05 13:32:00,
2013-04-05 08:42:00,36.0,34.0,30.18,SE,127,0.0,1.0,94,0.00,,,0.00,,2013-04-05 13:42:00,
2013-04-05 08:52:00,38.0,36.0,30.18,SSW,198,0.0,1.0,94,0.00,,,0.00,,2013-04-05 13:52:00,
2013-04-05 09:03:00,40.0,38.0,30.18,SSE,165,0.0,1.0,92,0.00,,,0.00,,2013-04-05 14:03:00,
2013-04-05 09:12:00,40.0,38.0,30.18,SSE,165,0.0,1.0,92,0.00,,,0.00,,2013-04-05 14:12:00,
2013-04-05 09:22:00,44.0,40.0,30.18,South,173,0.0,2.0,87,0.00,,,0.00,,2013-04-05 14:22:00,
2013-04-05 09:36:00,46.0,41.0,30.17,SW,234,0.0,2.0,81,0.00,,,0.00,,2013-04-05 14:36:00,
2013-04-05 09:43:00,46.0,41.0,30.17,SW,234,0.0,2.0,81,0.00,,,0.00,,2013-04-05 14:43:00,
2013-04-05 10:02:00,52.0,42.0,30.17,NW,304,0.0,2.0,68,0.00,,,0.00,,2013-04-05 15:02:00,
2013-04-05 10:12:00,52.0,42.0,30.17,NW,304,0.0,2.0,68,0.00,,,0.00,,2013-04-05 15:12:00,
2013-04-05 10:23:00,56.0,34.0,30.17,NNW,344,2.0,6.0,44,0.00,,,0.00,,2013-04-05 15:23:00,
2013-04-05 10:33:00,59.0,33.0,30.17,NW,319,4.0,8.0,37,0.00,,,0.00,,2013-04-05 15:33:00,
2013-04-05 10:42:00,59.0,33.0,30.17,NW,319,4.0,8.0,37,0.00,,,0.00,,2013-04-05 15:42:00,
2013-04-05 11:02:00,61.0,34.0,30.17,NNW,345,0.0,6.0,36,0.00,,,0.00,,2013-04-05 16:02:00,
2013-04-05 11:13:00,61.0,34.0,30.17,NNW,345,0.0,6.0,36,0.00,,,0.00,,2013-04-05 16:13:00,
2013-04-05 11:23:00,61.0,31.0,30.17,North,355,1.0,7.0,32,0.00,,,0.00,,2013-04-05 16:23:00,
2013-04-05 11:33:00,61.0,31.0,30.17,ENE,61,2.0,6.0,32,0.00,,,0.00,,2013-04-05 16:33:00,
2013-04-05 11:42:00,61.0,31.0,30.17,ENE,61,2.0,6.0,32,0.00,,,0.00,,2013-04-05 16:42:00,
2013-04-05 11:53:00,63.0,31.0,30.17,NW,306,3.0,7.0,30,0.00,,,0.00,,2013-04-05 16:53:00,
2013-04-05 12:03:00,63.0,32.0,30.17,ENE,78,2.0,4.0,31,0.00,,,0.00,,2013-04-05 17:03:00,
2013-04-05 12:13:00,63.0,32.0,30.17,ENE,78,2.0,4.0,31,0.00,,,0.00,,2013-04-05 17:13:00,
2013-04-05 12:23:00,64.0,34.0,30.16,NNE,14,2.0,8.0,32,0.00,,,0.00,,2013-04-05 17:23:00,
2013-04-05 12:32:00,65.0,35.0,30.16,ENE,76,3.0,7.0,33,0.00,,,0.00,,2013-04-05 17:32:00,
2013-04-05 12:45:00,65.0,35.0,30.16,ENE,76,3.0,7.0,33,0.00,,,0.00,,2013-04-05 17:45:00,
2013-04-05 12:52:00,66.0,37.0,30.15,WNW,283,3.0,7.0,34,0.00,,,0.00,,2013-04-05 17:52:00,
2013-04-05 13:02:00,66.0,34.0,30.15,NNE,33,4.0,8.0,31,0.00,,,0.00,,2013-04-05 18:02:00,
2013-04-05 13:12:00,66.0,34.0,30.15,NNE,33,4.0,8.0,31,0.00,,,0.00,,2013-04-05 18:12:00,
2013-04-05 13:22:00,66.0,36.0,30.14,NNE,16,1.0,9.0,33,0.00,,,0.00,,2013-04-05 18:22:00,
2013-04-05 13:33:00,67.0,35.0,30.14,NW,314,0.0,5.0,30,0.00,,,0.00,,2013-04-05 18:33:00,
2013-04-05 13:42:00,67.0,35.0,30.14,NW,314,0.0,5.0,30,0.00,,,0.00,,2013-04-05 18:42:00,
2013-04-05 13:53:00,67.0,34.0,30.14,WSW,257,3.0,7.0,29,0.00,,,0.00,,2013-04-05 18:53:00,
2013-04-05 14:01:00,68.0,34.0,30.12,West,269,1.0,7.0,28,0.00,,,0.00,,2013-04-05 19:01:00,
2013-04-05 14:02:00,68.0,36.0,30.13,North,355,1.0,8.0,31,0.00,,,0.00,,2013-04-05 19:02:00,
2013-04-05 14:13:00,68.0,36.0,30.13,North,355,1.0,8.0,31,0.00,,,0.00,,2013-04-05 19:13:00,
2013-04-05 14:23:00,68.0,34.0,30.12,West,269,1.0,7.0,28,0.00,,,0.00,,2013-04-05 19:23:00,
2013-04-05 14:33:00,68.0,34.0,30.12,West,269,1.0,7.0,28,0.00,,,0.00,,2013-04-05 19:33:00,
2013-04-05 14:42:00,68.0,34.0,30.12,West,269,1.0,7.0,28,0.00,,,0.00,,2013-04-05 19:42:00,
2013-04-05 14:53:00,68.0,34.0,30.12,West,269,1.0,7.0,28,0.00,,,0.00,,2013-04-05 19:53:00,
2013-04-05 15:22:00,69.0,34.0,30.11,NNW,340,4.0,10.0,27,0.00,,,0.00,,2013-04-05 20:22:00,
2013-04-05 15:33:00,69.0,34.0,30.11,NNW,340,4.0,10.0,27,0.00,,,0.00,,2013-04-05 20:33:00,
2013-04-05 15:42:00,69.0,34.0,30.11,NNW,340,4.0,10.0,27,0.00,,,0.00,,2013-04-05 20:42:00,
2013-04-05 15:53:00,70.0,36.0,30.09,NNW,346,4.0,14.0,29,0.00,,,0.00,,2013-04-05 20:53:00,
2013-04-05 16:02:00,70.0,36.0,30.09,NNE,33,4.0,8.0,29,0.00,,,0.00,,2013-04-05 21:02:00,
2013-04-05 16:13:00,70.0,36.0,30.09,NNE,33,4.0,8.0,29,0.00,,,0.00,,2013-04-05 21:13:00,
2013-04-05 16:23:00,70.0,37.0,30.08,North,355,2.0,9.0,30,0.00,,,0.00,,2013-04-05 21:23:00,
2013-04-05 16:33:00,69.0,38.0,30.08,ENE,66,3.0,7.0,32,0.00,,,0.00,,2013-04-05 21:33:00,
2013-04-05 16:43:00,69.0,38.0,30.08,ENE,66,3.0,7.0,32,0.00,,,0.00,,2013-04-05 21:43:00,
2013-04-05 16:54:00,69.0,38.0,30.08,ENE,66,3.0,7.0,32,0.00,,,0.00,,2013-04-05 21:54:00,
2013-04-05 17:03:00,69.0,40.0,30.08,SSE,154,1.0,7.0,35,0.00,,,0.00,,2013-04-05 22:03:00,
2013-04-05 17:13:00,69.0,40.0,30.08,SSE,154,1.0,7.0,35,0.00,,,0.00,,2013-04-05 22:13:00,
2013-04-05 17:23:00,69.0,38.0,30.09,NNW,339,2.0,6.0,32,0.00,,,0.00,,2013-04-05 22:23:00,
2013-04-05 17:33:00,68.0,39.0,30.09,NNE,13,2.0,6.0,34,0.00,,,0.00,,2013-04-05 22:33:00,
2013-04-05 17:43:00,68.0,39.0,30.09,NNE,13,2.0,6.0,34,0.00,,,0.00,,2013-04-05 22:43:00,
2013-04-05 17:53:00,67.0,38.0,30.09,NNW,346,3.0,10.0,35,0.00,,,0.00,,2013-04-05 22:53:00,
2013-04-05 18:02:00,66.0,39.0,30.09,NE,52,3.0,10.0,37,0.00,,,0.00,,2013-04-05 23:02:00,
2013-04-05 18:12:00,66.0,39.0,30.09,NE,52,3.0,10.0,37,0.00,,,0.00,,2013-04-05 23:12:00,
2013-04-05 18:22:00,65.0,39.0,30.09,ENE,63,3.0,8.0,38,0.00,,,0.00,,2013-04-05 23:22:00,
2013-04-05 18:32:00,65.0,39.0,30.09,NE,55,1.0,4.0,38,0.00,,,0.00,,2013-04-05 23:32:00,
2013-04-05 18:42:00,65.0,39.0,30.09,NE,55,1.0,4.0,38,0.00,,,0.00,,2013-04-05 23:42:00,
2013-04-05 18:53:00,65.0,39.0,30.10,NE,55,1.0,4.0,39,0.00,,,0.00,,2013-04-05 23:53:00,
2013-04-05 19:02:00,64.0,38.0,30.10,NE,44,0.0,3.0,38,0.00,,,0.00,,2013-04-06 00:02:00,
2013-04-05 19:13:00,64.0,38.0,30.10,NE,44,0.0,3.0,38,0.00,,,0.00,,2013-04-06 00:13:00,
2013-04-05 19:23:00,62.0,37.0,30.11,ENE,58,1.0,4.0,39,0.00,,,0.00,,2013-04-06 00:23:00,
2013-04-05 19:33:00,61.0,37.0,30.11,NE,36,1.0,3.0,41,0.00,,,0.00,,2013-04-06 00:33:00,
2013-04-05 19:42:00,61.0,37.0,30.11,NE,36,1.0,3.0,41,0.00,,,0.00,,2013-04-06 00:42:00,
2013-04-05 19:52:00,60.0,38.0,30.11,NNE,32,0.0,1.0,44,0.00,,,0.00,,2013-04-06 00:52:00,
2013-04-05 20:02:00,59.0,39.0,30.11,NNE,32,0.0,0.0,47,0.00,,,0.00,,2013-04-06 01:02:00,
2013-04-05 20:13:00,59.0,39.0,30.11,NNE,32,0.0,0.0,47,0.00,,,0.00,,2013-04-06 01:13:00,
2013-04-05 20:22:00,57.0,39.0,30.12,NNE,33,0.0,1.0,50,0.00,,,0.00,,2013-04-06 01:22:00,
2013-04-05 20:32:00,56.0,39.0,30.12,NE,37,0.0,1.0,53,0.00,,,0.00,,2013-04-06 01:32:00,
2013-04-05 20:43:00,56.0,39.0,30.12,NE,37,0.0,1.0,53,0.00,,,0.00,,2013-04-06 01:43:00,
2013-04-05 20:53:00,55.0,39.0,30.12,NE,37,0.0,0.0,55,0.00,,,0.00,,2013-04-06 01:53:00,
2013-04-05 21:02:00,54.0,40.0,30.13,NE,37,0.0,1.0,59,0.00,,,0.00,,2013-04-06 02:02:00,
2013-04-05 21:12:00,54.0,40.0,30.13,NE,37,0.0,1.0,59,0.00,,,0.00,,2013-04-06 02:12:00,
2013-04-05 21:22:00,53.0,39.0,30.14,NE,37,0.0,0.0,60,0.00,,,0.00,,2013-04-06 02:22:00,
2013-04-05 21:32:00,53.0,40.0,30.15,NE,37,0.0,0.0,62,0.00,,,0.00,,2013-04-06 02:32:00,
2013-04-05 21:42:00,53.0,40.0,30.15,NE,37,0.0,0.0,62,0.00,,,0.00,,2013-04-06 02:42:00,
2013-04-05 21:52:00,52.0,39.0,30.15,NE,37,0.0,0.0,61,0.00,,,0.00,,2013-04-06 02:52:00,
2013-04-05 22:02:00,51.0,39.0,30.15,NE,37,0.0,0.0,63,0.00,,,0.00,,2013-04-06 03:02:00,
2013-04-05 22:12:00,51.0,39.0,30.15,NE,37,0.0,0.0,63,0.00,,,0.00,,2013-04-06 03:12:00,
2013-04-05 22:22:00,51.0,40.0,30.15,NE,37,0.0,0.0,65,0.00,,,0.00,,2013-04-06 03:22:00,
2013-04-05 22:33:00,50.0,38.0,30.15,NE,37,0.0,0.0,64,0.00,,,0.00,,2013-04-06 03:33:00,
2013-04-05 22:43:00,50.0,38.0,30.15,NE,37,0.0,0.0,64,0.00,,,0.00,,2013-04-06 03:43:00,
2013-04-05 22:54:00,50.0,38.0,30.15,NE,37,0.0,0.0,63,0.00,,,0.00,,2013-04-06 03:54:00,
2013-04-05 23:03:00,49.0,39.0,30.15,NE,37,0.0,1.0,68,0.00,,,0.00,,2013-04-06 04:03:00,
2013-04-05 23:13:00,49.0,39.0,30.15,NE,37,0.0,1.0,68,0.00,,,0.00,,2013-04-06 04:13:00,
2013-04-05 23:23:00,49.0,39.0,30.15,NE,37,0.0,1.0,68,0.00,,,0.00,,2013-04-06 04:23:00,
2013-04-05 23:32:00,47.0,38.0,30.14,NE,40,0.0,1.0,70,0.00,,,0.00,,2013-04-06 04:32:00,
2013-04-05 23:42:00,47.0,38.0,30.14,NE,40,0.0,1.0,70,0.00,,,0.00,,2013-04-06 04:42:00,
2013-04-05 23:53:00,45.0,38.0,30.14,NNE,27,0.0,1.0,75,0.00,,,0.00,,2013-04-06 04:53:00,